User: anonymous   Login
Location: Buckland
(65.9785°N, 161.1281°W)
Time: 03:48:07
(UTC+00:00)
Language:

Tiros 1 - Orbit

View from above orbital plane
View from above orbital plane
View from above satellite
View from above satellite

Ground track
Ground track

The orbit data is extracted from the following two-line orbital elements,

1 00029U 60002B   21138.45370038 -.00000122  00000-0  12852-4 0  9992
2 00029  48.3782 167.5697 0024543 226.8874 132.9984 14.74428252267977
Epoch (UTC): 18 May 2021 10:53:19
Eccentricity: 0.0024543
inclination: 48.3782°
perigee height: 630 km
apogee height: 664 km
right ascension of ascending node: 167.5697°
argument of perigee: 226.8874°
revolutions per day: 14.74428252
mean anomaly at epoch: 132.9984°
orbit number at epoch: 26797

The dashed part of the orbit path shows where the satellite is in the earth's shadow,  

DLR